Flag for U.S.A. Weather past 2 weeks in Salt Lake City, Utah, U.S.A.

Now
46 °F

Partly cloudy.


Feels Like: 45 °F
Forecast: 39 / 49 °F
Wind: 3 mph from North

Location: Salt Lake City International Airport

Current Time: Apr 1, 2015 at 9:15:12 PM

Latest Report: Apr 1, 2015 at 8:53 PM


Visibility: 10 mi

Pressure: 29.96 "Hg

Humidity: 21%

Dew point: 8 °F

Location of Salt Lake CityLocation

Historic Weather in Salt Lake City — Graph

°F

Salt Lake City temperature yesterday

Maximum temperature yesterday: 77 °F (at 2:53 PM)
Minimum temperature yesterday: 50 °F (at 2:53 AM)
Average temperature yesterday: 64 °F

Past Weeks' High & Low Weather Summary

 TemperatureHumidityPressure
High77 °F (Mar 31, 2:53 PM)93% (Mar 24, 2:53 AM)30.40 "Hg (Mar 24, 2:53 AM)
Low35 °F (Mar 19, 6:53 AM)10% (Mar 31, 2:53 PM)29.59 "Hg (Mar 31, 6:53 PM)
Average53 °F43%30.07 "Hg
* Reported Mar 17 7:53 PM — Apr 1 7:53 PM, Salt Lake City, Weather by CustomWeather, © 2015

Note: Actual official high and low records may vary slightly from our data, if they occured in-between our weather recording intervals... More about our weather records

Advertising

Salt Lake City weather history for previous 24 hours

 ConditionsComfort  
Time TempWeatherWind HumidityBarometerVisibility
7:53 PM
Wed, Apr 1
46 °FBroken clouds.9 mph17%29.98 "Hg10 mi
6:53 PM50 °FBroken clouds.7 mph14%29.99 "Hg10 mi
5:53 PM51 °FBroken clouds.12 mph12%29.99 "Hg10 mi
4:53 PM53 °FBroken clouds.13 mph16%29.99 "Hg10 mi
3:53 PM50 °FBroken clouds.10 mph24%30.01 "Hg10 mi
2:53 PM49 °FScattered clouds.5 mph29%29.98 "Hg10 mi
1:53 PM48 °FScattered clouds.9 mph33%30.05 "Hg10 mi
12:53 PM47 °FScattered clouds.14 mph36%30.05 "Hg10 mi
11:53 AM45 °FScattered clouds.10 mph42%30.06 "Hg10 mi
10:53 AM45 °FScattered clouds.13 mph38%30.07 "Hg10 mi
9:53 AM44 °FScattered clouds.13 mph40%30.05 "Hg10 mi
8:53 AM42 °FScattered clouds.12 mph45%30.06 "Hg10 mi
7:53 AM40 °FPassing clouds.8 mph51%30.03 "Hg10 mi
6:53 AM39 °FPassing clouds.7 mph55%30.01 "Hg10 mi
5:53 AM42 °FPassing clouds.14 mph51%29.97 "Hg10 mi
4:53 AM43 °FPartly cloudy.12 mph47%29.94 "Hg10 mi
3:53 AM45 °FPassing clouds.15 mph44%29.93 "Hg10 mi
2:53 AM48 °FPassing clouds.20 mph41%29.90 "Hg8 mi
1:53 AM49 °FPassing clouds.21 mph46%29.85 "Hg9 mi
12:53 AM55 °FPassing clouds.24 mph45%29.75 "Hg6 mi
11:53 PM
Tue, Mar 31
62 °FOvercast.9 mph34%29.65 "Hg10 mi
10:53 PM64 °FPassing clouds.8 mph29%29.63 "Hg10 mi
9:53 PM65 °FPartly cloudy.12 mph28%29.64 "Hg10 mi
Weather by CustomWeather, © 2015

See weather overviewHow to use our weather pages